www.pogodaiklimat.ru

Погода и климат >> Архив погоды >> Канада >> Henderickson Auto


ПОГОДА в Henderickson Auto

  • Прогноз погоды в Henderickson Auto
  • Монитор погоды в Henderickson Auto
  • Климат города

АРХИВ ПОГОДЫ в Henderickson Auto

Время (UTC), дата Ветер
(напр.,м/с)
 
Видим.   Явления Облачность Т
(С)
Тd
(С)
f
(%)
Тe
(С)
Тes
(С)
Комфортность P
(гПа)
Po
(гПа)
Тmin
(С)
Tmax
(С)
R
(мм)
R24
(мм)
S
(см)
00 11.11 штиль 0 н/о н/о -2.8 -4.2 90 -4 -4 1008.1 842.4 -5.5 +3.3
03 11.11 З 1 н/о н/о -9.2 -10.5 90 -12 -12 1009.7 842.7
06 11.11 СЗ 2 н/о н/о -6.5 -7.4 93 -11 -11 1010.3 843.8 -11.5 +3.3
09 11.11 З 1 н/о н/о -11.7 -13.0 90 -14 -14 1011.8 845.2
12 11.11 З 1 н/о н/о -15.2 -17.3 84 -18 -18 1015.1 846.6 -15.2 +3.3 17
15 11.11 З 1 н/о н/о -17.2 -19.3 84 -18 -18 1018.1 847.8
18 11.11 штиль 0 н/о н/о -6.2 -8.7 82 -7 -7 1016.7 848.8 -17.2 -5.6
21 11.11 штиль 0 н/о н/о +1.5 -2.7 74 +1 +1 1016.2 848.8
00 12.11 штиль 0 н/о н/о -3.6 -4.4 94 -5 -5 1018.0 848.9 -17.2 +2.3
03 12.11 штиль 0 н/о н/о -6.6 -7.6 93 -8 -8 1019.1 849.0
06 12.11 штиль 0 н/о н/о -7.6 -8.4 94 -8 -8 1017.7 849.5 -17.2 +2.3
09 12.11 ЮВ 2 н/о н/о -6.5 -7.2 95 -10 -10 1015.8 849.3
12 12.11 ЮВ 1 н/о н/о -6.7 -7.5 94 -7 -7 1015.8 848.4 -8.6 +2.3 18
15 12.11 ЮВ 1 н/о н/о -7.4 -8.3 93 -10 -10 1014.7 846.9
18 12.11 ЮЗ 1 н/о н/о -6.4 -7.8 90 -7 -7 1013.6 846.0 -8.6 -6.0
21 12.11 З 1 н/о н/о -1.9 -3.4 89 -4 -4 1010.4 844.2
00 13.11 З 1 н/о н/о -5.0 -6.1 92 -6 -6 1010.3 843.6 -7.7 -1.2
03 13.11 З 1 н/о н/о -8.8 -9.8 92 -11 -11 1010.2 842.8
06 13.11 З 2 н/о н/о -3.0 -4.0 93 -7 -7 1010.3 844.0 -9.4 -1.2
09 13.11 СЗ 1 н/о н/о -7.9 -8.8 93 -10 -10 1009.4 843.2
12 13.11 штиль 0 н/о н/о -8.1 -9.3 91 -9 -9 1008.3 841.7 -9.4 -1.2 19
15 13.11 В 3 н/о н/о -3.5 -4.3 94 -9 -9 1005.4 839.4
18 13.11 В 5 н/о н/о -2.7 -3.7 93 -9 -9 1001.6 837.3 -9.4 -2.6 0.2
21 13.11 В 4 н/о н/о -2.5 -3.7 91 -8 -8 1000.1 835.3
00 14.11 В 1 н/о н/о -3.2 -4.1 93 -6 -6 1001.2 836.1 -9.1 -2.1
03 14.11 С 1 н/о н/о -6.3 -7.2 93 -9 -9 1003.2 838.0
06 14.11 С 1 н/о н/о -10.3 -11.4 92 -13 -13 1006.5 840.2 -10.3 -2.1 19
09 14.11 ЮВ 1 н/о н/о -10.5 -11.4 93 -13 -13 1009.0 842.3
12 14.11 ЮВ 1 н/о н/о -10.8 -12.0 91 -13 -13 1011.1 843.9 -10.8 -2.1 19
15 14.11 В 2 н/о н/о -11.6 -12.9 90 -16 -16 1013.4 845.2
18 14.11 В 2 н/о н/о -10.5 -11.9 89 -14 -14 1015.1 846.2 -11.6 -10.3
21 14.11 В 2 н/о н/о -8.8 -10.2 90 -13 -13 1015.2 846.5
00 15.11 В 2 н/о н/о -8.6 -9.6 92 -12 -12 1015.6 846.8 -11.6 -8.4
03 15.11 ЮВ 2 н/о н/о -9.1 -10.2 92 -13 -13 1015.5 846.5
06 15.11 ЮВ 2 н/о н/о -9.5 -10.6 92 -13 -13 1014.5 845.8 -11.6 -8.4
09 15.11 ЮВ 1 н/о н/о -10.1 -11.3 91 -13 -13 1012.5 844.3
12 15.11 В 2 н/о н/о -10.5 -11.9 89 -14 -14 1010.5 842.6 -10.5 -8.4 18
15 15.11 В 1 н/о н/о -11.9 -13.3 89 -14 -14 1008.9 841.0
18 15.11 В 1 н/о н/о -11.9 -13.5 88 -14 -14 1006.9 839.3 -12.2 -9.4
21 15.11 В 2 н/о н/о -12.0 -13.9 86 -16 -16 1005.1 837.6
00 16.11 СВ 1 н/о н/о -12.6 -14.3 87 -13 -13 1004.2 836.7 -12.6 -10.5
03 16.11 СЗ 1 н/о н/о -13.8 -15.7 86 -14 -14 1003.7 835.9
06 16.11 ЮВ 1 н/о н/о -13.9 -15.6 87 -14 -14 1002.3 834.7 -14.1 -9.4
09 16.11 СВ 1 н/о н/о -14.6 -16.4 86 -15 -15 1001.4 833.8
12 16.11 ЮВ 1 н/о н/о -15.2 -17.0 86 -16 -16 1000.4 832.8 -15.2 -9.4 18
15 16.11 З 1 н/о н/о -15.9 -18.0 84 -16 -16 1000.0 832.2
18 16.11 штиль 0 н/о н/о -14.3 -16.5 83 -14 -14 999.8 832.3 -16.8 -13.9
21 16.11 штиль 0 н/о н/о -11.3 -13.4 84 -11 -11 998.6 831.6 0.2
00 17.11 З 1 н/о {осадки} н/о -13.0 -14.8 86 -13 -13 1000.2 832.6 -16.8 -11.0 0.2
03 17.11 штиль 0 н/о н/о -17.9 -20.2 82 -18 -18 1002.1 833.3 0.9
06 17.11 штиль 0 н/о н/о -21.7 -24.4 79 -22 -22 1003.4 834.0 -21.7 -11.0 0.9
09 17.11 штиль 0 н/о н/о -23.8 -26.6 78 -24 -24 1003.2 834.0
12 17.11 З 1 н/о н/о -21.3 -23.7 81 -22 -22 1004.0 834.8 -24.0 -11.0 21
15 17.11 З 1 н/о н/о -19.0 -21.6 80 -20 -20 1006.3 836.3
18 17.11 ЮВ 2 н/о н/о -13.4 -16.0 81 -17 -17 1007.3 837.4 -24.0 -13.4

 

Местоположение метеостанции Henderickson Auto (Канада): широта 53.78 долгота -118.40 высота над уровнем моря 1432 м.

В архиве по умолчанию представлена погода в Henderickson Auto за последнюю неделю. Архивные данные за месяц целиком и за предыдущие месяцы, начиная с января 2011 года, Вы можете получить, выбрав интересующий диапазон дат из раскрывающегося списка и нажав кнопку "Ввод!".

Внимание! Время в таблицах - всемирное. Для получения местного времени необходимо прибавить поправку, которая в Henderickson Auto равна -7 ч.

Смотрите также архив погоды в соседних городах и на ближайших метеорологических станциях:

Погода в Willow Creek 1 (Канада) (45 км)
Погода в Jasper Warden (Канада) (98 км)
Погода в Jasper (Канада) (104 км)
Погода в Edson AB (Канада) (134 км)
Погода в Grande Prairie (Канада) (158 км)
Погода в Valley View Agdm (Канада) (166 км)
Погода в Beaverlodge Cda (Канада) (171 км)
Погода в Teepee Creek Agcm (Канада) (175 км)
Погода в Whitecourt (Канада) (181 км)
Погода в Whitecourt Alta (Канада) (181 км)

Пояснения к столбцам:

Ветер - указаны скорость ветра в м/с - средняя за 10 мин, порывы в срок и между сроками (в фигурных скобках) и направление, откуда дует ветер: С - северный, СВ - северо-восточный, В - восточный, ЮВ - юго-восточный, Ю - южный, ЮЗ - юго-западный, З - западный, СЗ - северо-западный.
Видимость - горизонтальная дальность видимости в метрах или километрах. При видимости от 1 до 10 км при отсутствии осадков обычно наблюдается дымка, при ухудшении видимости до 1 км и менее - туман. В сухую погоду видимость может ухудшаться дымом, пылью или мглою.
Явления - указаны атмосферные явления, наблюдавшиеся в срок или в последний час перед сроком; фигурными скобками обозначены явления, наблюдавшиеся между сроками (за 1-3 часа до срока); квадратными скобками обозначены град или гололедные отложения с указанием их диаметра в мм.
Облачность - указаны через наклонную черту общая и нижняя облачность в баллах и высота нижней границы облаков в метрах; квадратными скобками обозначены формы облаков: Ci - перистые, Cs - перисто-слоистые, Cc - перисто-кучевые, Ac - высококучевые, As - высокослоистые, Sc - слоисто-кучевые, Ns - слоисто-дождевые, Cu - кучевые, Cb - кучево-дождевые. Подробнее классификацию облаков см. в Атласе облаков (PDF).
T - Температура воздуха - температура, измеренная на высоте 2 м над землей.
Td - Температура точки росы - температура, при понижении до которой содержащийся в воздухе водяной пар достигнет насыщения.
f - Относительная влажность воздуха - влажноcть воздуха, измеренная на высоте 2 м над землей.
Te - Эффективная температура - температура, которую ощущает одетый по сезону человек в тени. Характеристика душности погоды. При расчете учитывается влияние влажности воздуха и скорости ветра на теплоощущения человека.
Tes - Эффективная температура на солнце - температура, которую ощущает человек, с поправкой на солнечный нагрев. Характеристика знойности погоды. Зависит от высоты солнца над горизонтом, облачности и скорости ветра. Ночью, в пасмурную погоду, а также при ветре 12 м/с и более поправка равна нулю.
P - Атмосферное давление - приведенное к уровню моря атмосферное давление.
Po - Атмосферное давление - измеренное на уровне метеостанции атмосферное давление.
Tmin - Минимальная температура - минимум температуры воздуха на высоте 2 м над землей.
Tmax - Максимальная температура - максимум температуры воздуха на высоте 2 м над землей.
R - Количество осадков - Количество выпавших осадков за период времени, мм. При наведении курсора мыши на число - период времени, за который выпало указанное количество осадков.
R24 - Количество осадков - Количество выпавших осадков за 24 часа, мм.
S - Снежный покров - Высота снежного покрова, см. При наведении курсора мыши на число - состояние снежного покрова и степень покрытия местности в баллах.